Погода в Славгороде

Погода в Славгороде : погода сейчас, прогноз погоды и архив. Всё, что Вы хотите узнать о погоде в Славгороде!

Хотите узнать прогноз погоды в Славгороде? Тогда Вам сюда: Погода в Славгороде

Поиск расширенной информации на нашем сайте:

Другие новости

Новости СМИ2

Главная страница сайта

Новости сайта

03.07.2017

Напоминаем, что на нашем специализированном сайте Метеоцентр.Азия вы можете получить высокодетализированные автоматические прогнозы погоды по пунктам России, СНГ и мира в авиационном формате (включающие направление и скорость ветра, видимость, явления погоды, количество и форму облачности, нижнюю и верхнюю границу облачности).


Погода в Славгороде - сегодня

Время (UTC), дата Ветер
(°,м/с) 
Видим.   Явления Облачность Т
(°С)
Тd
(°С)
f(%) Тe
(°С)
Pmin
(гПа)
dP
(гПа)
Po
(мм)
O2
(г/м3)
Тmin Tmax R s Состояние
почвы
00 11.10.18 190 (Ю) 20000 м    ясно 
-2.9 -3.8 93 -4  1026  -0.6  757  309  -4.6        замёрзшая 
03 11.10.18 210 (ЮЗ) 20000 м    9/0 верхняя 
[Ci sp]
+2.2 -0.9 80 +1  1024.4  -1.2  756  302           
12 11.10.18 200 (Ю) 3{10}  20000 м    4/0 средняя 
[Ac As]
+11.7 -1.9 39 +11  1016.8  -2.2  751  290    +13.5       
15 11.10.18 160 (Ю) 20000 м    10/10 960 м 
[Sc]
+10.1 +1.4 55 +9  1015.6  -1.3  750  291           
18 11.10.18 190 (Ю) 20000 м    ясно 
+9.6 +1.3 56 +8  1013.6  -1.9  749  291           
21 11.10.18 190 (Ю) 7-11{11}  20000 м    ясно 
+9 +1 57 +7  1011.3  -2.3  747  291           
00 12.10.18 180 (Ю) 6{11}  20000 м    ясно 
+7.4 +1.7 67 +5  1009.3  -2.1  746  292  +7.4        сухая 
12 12.10.18 190 (Ю) 8-11{13}  20000 м    10/8 660 м кучево-дожд., верхняя 
[Cb cap|Ci sp]
+15.4 +1.8 40 +14  1004.1  -1.4  742  283    +18.3       
00 13.10.18 240 (ЮЗ) 3{11}  20000 м  {ливн. осадки}  10/10 720 м кучево-дожд. 
[Cb cap]
+7.3 +4.9 85 +7  1000.7  1.8  739  289  +7.2      влажная 
12 13.10.18 250 (З) 20000 м  {ливн. осадки}  10/10 720 м кучево-дожд. 
[Cb cap]
+2.8 -0.6 78 +1  1007.4  3.4  744  297    +7.3     
15 13.10.18 240 (ЮЗ) 20000 м    10/10 750 м кучево-дожд. 
[Cb cap]
+1.4 -0 90 1010.3  2.9  746  299           
18 13.10.18 200 (Ю) 20000 м    ясно 
-1.6 -2.8 92 -3  1012.6  2.1  748  303           
21 13.10.18 150 (ЮВ) 20000 м    ясно 
-2.4 -3.4 93 -4  1013.6  0.9  748  305           
00 14.10.18 160 (Ю) 20000 м    8/8 660 м кучево-дожд. 
[Cb cap]
-1.1 -2 94 -2  1013.6  0.1  748  303  -3.5        замёрзшая 
03 14.10.18 150 (ЮВ) 20000 м    10/10 630 м кучево-дожд. 
[Cb cap]
+1.2 +0.4 94 1012.8  -0.7  748  300           
12 14.10.18 220 (ЮЗ) 3{13}  20000 м  {ливн. осадки}  3/0 верхняя 
[Ci sp]
+0.9 -2.3 79 -1  1021.3  2.5  754  303    +2     
15 14.10.18 200 (Ю) 20000 м    ясно 
+0.1 -3 80 -2  1022.4  755  304           
18 14.10.18 200 (Ю) 20000 м    ясно 
-0.6 -2.7 86 -3  1022.7  0.3  755  305           
21 14.10.18 210 (ЮЗ) 20000 м    ясно 
-2.9 -4.7 87 -4  1023.3  0.5  755  308           
00 15.10.18 190 (Ю) 20000 м    ясно 
-3.3 -4.8 89 -5  1023.8  0.5  756  309  -4.2        замёрзшая 
03 15.10.18 150 (ЮВ) 20000 м    ясно 
-1.5 -3.9 84 -3  1023.8  756  307  -5.1         
06 15.10.18 150 (ЮВ) 20000 м    3/0 средняя 
[Ac trans]
+4.3 -3.5 57 +3  1022.7  -0.7  755  300           
09 15.10.18 130 (ЮВ) 20000 м    3/0 верхняя 
[Ci sp]
+7.2 -2.5 50 +5  1020.1  -2.4  753  296           
12 15.10.18 090 (В) 20000 м    10/0 верхняя 
[Ci sp]
+5.2 -1.9 60 +4  1019.3  -0.9  753  298    +7.5       
15 15.10.18 090 (В) 20000 м    10/3 600 м кучево-дожд., верхняя 
[Cb cap|Ci sp]
+3.9 -1.4 68 +3  1018.2  -1.1  752  299           
Время (UTC), дата Ветер
(°,м/с) 
Видим.   Явления Облачность Т
(°С)
Тd
(°С)
f(%) Тe
(°С)
Pmin
(гПа)
dP
(гПа)
Po
(мм)
O2
(г/м3)
Тmin Tmax R s Состояние
почвы

Для получения пояснительной информации подведите курсор к названию столбца.

ПОГОДА в Славгороде - архив

Всё, что Вы хотите узнать о погоде в Славгороде - удобно и подробно!

Выберите нужную дату (начиная с 1 января 2015* года) и нажмите кнопку "Найти".
Будут отображены архивные сводки погоды по пункту Славгород, начиная с указанной даты.


Отображать данные в формате CSV (для использования в таблицах Excel)


Внимание! Наш архив погоды предназначен исключительно для личного некоммерческого использования в познавательных целях. Если Вам необходимы официальные справки о состоянии погоды (для производственных, юридических, коммерческих и т.п. целей), обращайтесь в органы Росгидромета.

*Примечание: данная дата относится к архиву по метеостанциям СССР (Россия, СНГ, Балтия).
Архив по метеостанциям Зарубежной Европы и Азии (кроме Китая) хранится 10 дней, по другим регионам земного шара (Китай, Африка, Америка, Австралия, Океания) - 1 день.

Славгород - район местоположения метеостанции


Название, широта, долгота, высота метеостанции:
Славгород 53°ш. 78.6°д. 126 м над ур. моря [Российская Федерация]

Дополнительная информация

В oтличие oт бoльшинства пoгoдных сайтoв мы публикуем пoдрoбную метеoинфoрмацию в детальнoм прoфессиoнальнoм фoрмате.

Характеристики температуры и влажнoсти вoздуха измеряются на высoте 2 м в тени вдали oт зданий и деревьев.
Скoрoсть ветра измеряется на высoте 10 м (на урoвне рoста челoвека скoрoсть ветра ниже в 1.5-2 раза). Если метеoстанция нахoдится в гoрoде или в лесу, тo скoрoсть ветра занижена на 2-4 м/с пo сравнению с oткрытым местoм. Скoрoсть ветра над акватoриями крупных рек и oзёр, а также на вершинах хoлмoв на 2-5 м/с выше, чем в oбычных услoвиях.
Атмoсфернoе давление в разных тoчках местнoсти мoжет значительнo oтличаться oт давления на метеoстанции, в зависимoсти oт услoвий рельефа (при пoдъёме на 10 м давление пoнижается примернo на 1 мм рт.ст.).